Flag for Canada Weather past 2 weeks in Kugluktuk, Nunavut, Canada

Now
48 °F

Light rain. Mostly cloudy.


Feels Like: 47 °F
Forecast: 47 / 67 °F
Wind: 3 mph from Southeast

Location: Coppermine

Current Time: Aug 3, 2015 at 5:26:57 AM

Latest Report: Aug 3, 2015 at 4:00 AM


Visibility: 12 mi

Pressure: 30.06 "Hg

Humidity: 94%

Dew point: 46 °F

Location of KugluktukLocation

Historic Weather in Kugluktuk — Graph

°F

Kugluktuk temperature yesterday

Maximum temperature yesterday: 61 °F (at 2:00 PM)
Minimum temperature yesterday: 48 °F (at 9:00 PM)
Average temperature yesterday: 54 °F

Past Weeks' High & Low Weather Summary

 TemperatureHumidityPressure
High73 °F (Aug 1, 4:00 PM)100% (Jul 21, 12:00 AM)30.10 "Hg (Jul 21, 12:00 AM)
Low43 °F (Jul 22, 5:00 AM)40% (Jul 31, 3:00 PM)29.63 "Hg (Jul 22, 11:00 PM)
Average55 °F77%29.84 "Hg
* Reported Jul 19 4:00 AM — Aug 3 4:00 AM, Kugluktuk, Weather by CustomWeather, © 2015

Note: Actual official high and low records may vary slightly from our data, if they occured in-between our weather recording intervals... More about our weather records

Advertising

Kugluktuk weather history for previous 24 hours

 ConditionsComfort  
Time TempWeatherWind HumidityBarometerVisibility
4:00 AM
Mon, Aug 3
48 °FLight rain. Mostly cloudy.3 mph94%30.06 "Hg12 mi
3:00 AM48 °FLight rain. Overcast.6 mph94%30.07 "Hg8 mi
2:00 AM46 °FLight rain. Overcast.8 mph93%30.06 "Hg8 mi
1:00 AM46 °FLight rain. More clouds than sun.8 mph93%30.07 "Hg10 mi
12:00 AM46 °FLight rain. Cloudy.9 mph93%30.07 "Hg10 mi
11:00 PM
Sun, Aug 2
48 °FLight rain. Mostly cloudy.13 mph87%30.08 "Hg15 mi
10:00 PM48 °FLight rain. Mostly cloudy.15 mph87%30.07 "Hg15 mi
9:00 PM48 °FCloudy.12 mph87%30.07 "Hg15 mi
8:00 PM50 °FLight rain. Mostly cloudy.15 mph88%30.07 "Hg15 mi
7:00 PM50 °FMostly cloudy.15 mph82%30.07 "Hg15 mi
6:00 PM52 °FMostly cloudy.17 mph77%30.06 "Hg15 mi
5:00 PM55 °FMostly cloudy.16 mph72%30.05 "Hg15 mi
4:00 PM57 °FScattered showers. Broken clouds.16 mph72%30.05 "Hg15 mi
3:00 PM59 °FBroken clouds.15 mph68%30.04 "Hg15 mi
2:00 PM61 °FPartly sunny.14 mph68%30.03 "Hg15 mi
1:00 PM59 °FBroken clouds.9 mph72%30.03 "Hg15 mi
12:00 PM57 °FBroken clouds.8 mph77%30.02 "Hg15 mi
11:00 AM55 °FMostly cloudy.9 mph88%30.01 "Hg15 mi
10:00 AM55 °FMostly cloudy.14 mph88%30.01 "Hg15 mi
9:00 AM57 °FPartly sunny.8 mph82%29.99 "Hg15 mi
8:00 AM59 °FBroken clouds.9 mph77%29.98 "Hg15 mi
7:00 AM57 °FBroken clouds.8 mph82%29.97 "Hg15 mi
6:00 AM54 °FPartly cloudy.7 mph94%29.96 "Hg15 mi
5:00 AM52 °FPassing clouds.13 mph94%29.95 "Hg15 mi
Weather by CustomWeather, © 2015

See weather overviewHow to use our weather pages